Location: Silverdale
(47.6506°N, 122.6941°W)
Time: 03:46:06
(UTC+00:00)

Altair - Pass Details

Date: 09 October 2022
Orbit: 1501 x 1682 km, 47.2° (Epoch: 04 December)

Event Time Altitude Azimuth Distance (km) Brightness Sun altitude
Rises 09:51:35 0° 196° (SSW) 4,686 - -42.1°
Reaches altitude 10° 09:55:11 10° 185° (S) 3,732 - -41.7°
Maximum altitude 10:02:40 27° 132° (SE) 2,679 - -40.9°
Exits shadow 10:03:15 27° 127° (SE) 2,691 8.7 -40.8°
Drops below altitude 10° 10:10:23 10° 80° (E) 3,860 10.1 -40.0°
Sets 10:14:08 0° 69° (ENE) 4,876 10.9 -39.5°
